Lawrence, KS

2:40 PM CDT on September 25, 2017 (GMT -0500)
Lawrence Municipal

Weather History for KLWC - May, 2013

Change the Weather History Date:

Tuesday, May 7, 2013

  Actual Average Record
Temperature  
Mean Temperature 59 °F 62 °F  
Max Temperature 76 °F 74 °F 90 °F (2014)
Min Temperature 41 °F 50 °F 41 °F (2013)
Degree Days  
Heating Degree Days 6 5  
Month to date heating degree days 104 39  
Since 1 July heating degree days 5218 5018  
Cooling Degree Days 0 2  
Month to date cooling degree days 0 9  
Year to date cooling degree days 13 32  
Growing Degree Days 8 (Base 50)    
Moisture  
Dew Point 47 °F    
Average Humidity 71    
Maximum Humidity 100    
Minimum Humidity 41    
Precipitation  
Precipitation 0.00 in 0.15 in 1.66 in (2007)
Month to date precipitation 1.09 1.19  
Year to date precipitation 9.21 9.89  
Sea Level Pressure  
Sea Level Pressure 30.06 in    
Wind  
Wind Speed 3 mph (SSW)    
Max Wind Speed 12 mph    
Max Gust Speed 16 mph    
Visibility 4 miles    
Events Fog    
T = Trace of Precipitation, MM = Missing Value Source: NWS Daily Summary

Daily Weather History Graph

Daily Weather History Graph

Search for Another Location

Airport or City:

Trip Planner

Search our weather history database for the weather conditions in past years. The results will help you decide how hot, cold, wet, or windy it might be!

Date:

Astronomy

May. 07, 2013 Rise Set
Actual Time 6:15 AM CDT 8:19 PM CDT
Civil Twilight 5:46 AM CDT 8:49 PM CDT
Nautical Twilight 5:10 AM CDT 9:25 PM CDT
Astronomical Twilight 4:31 AM CDT 10:04 PM CDT
Moon 4:49 AM CDT (5/7) 6:21 PM CDT (5/7)
Length of Visible Light 15h 02m
Length of Day
14h 04m
Waning Crescent, 5% of the Moon is Illuminated
May 7
Waning Crescent
May 9
New
May 17
First Quarter
May 24
Full
May 31
Last Quarter

Hourly Weather History & Observations

Time (CDT) Temp. Windchill Dew Point Humidity Pressure Visibility Wind Dir Wind Speed Gust Speed Precip Events Conditions
12:03 AM 48.2 °F - 46.4 °F 93% 30.08 in 3.0 mi NNW 4.6 mph - N/A   Clear
12:31 AM 48.2 °F - 46.4 °F 93% 30.08 in 2.5 mi Calm Calm - N/A   Clear
12:43 AM 46.4 °F - 44.6 °F 93% 30.08 in 0.8 mi Calm Calm - N/A   Clear
12:48 AM 46.4 °F - 44.6 °F 93% 30.08 in 0.2 mi Calm Calm - N/A Fog Fog
12:52 AM 46.0 °F - 44.1 °F 93% 30.09 in 0.2 mi Calm Calm - N/A Fog Fog
1:09 AM 46.4 °F 45.2 °F 46.4 °F 100% 30.08 in 0.5 mi West 3.5 mph - N/A Fog Fog
1:13 AM 44.6 °F 43.1 °F 44.6 °F 100% 30.08 in 1.0 mi NW 3.5 mph - N/A   Clear
1:25 AM 44.6 °F 41.4 °F 42.8 °F 93% 30.08 in 2.5 mi NNW 5.8 mph - N/A   Clear
1:31 AM 44.6 °F 43.1 °F 42.8 °F 93% 30.08 in 0.8 mi North 3.5 mph - N/A   Clear
1:36 AM 44.6 °F 43.1 °F 42.8 °F 93% 30.08 in 0.5 mi NNW 3.5 mph - N/A Fog Fog
1:41 AM 42.8 °F - 42.8 °F 100% 30.08 in 0.2 mi Calm Calm - N/A Fog Fog
1:52 AM 44.1 °F - 43.0 °F 96% 30.08 in 0.2 mi Calm Calm - N/A Fog Fog
2:03 AM 44.6 °F - 44.6 °F 100% 30.07 in 0.2 mi Calm Calm - N/A Fog Fog
2:37 AM 42.8 °F - 42.8 °F 100% 30.06 in 0.5 mi Calm Calm - N/A Fog Fog
3:06 AM 42.8 °F - 42.8 °F 100% 30.05 in 0.8 mi Calm Calm - N/A   Mist
3:13 AM 44.6 °F - 42.8 °F 93% 30.05 in 0.2 mi Calm Calm - N/A Fog Fog
3:23 AM 42.8 °F - 42.8 °F 100% 30.05 in 1.2 mi Calm Calm - N/A   Overcast
3:29 AM 41.0 °F - 39.2 °F 93% 30.05 in 0.5 mi Calm Calm - N/A Fog Fog
3:35 AM 42.8 °F - 41.0 °F 93% 30.05 in 0.2 mi Calm Calm - N/A Fog Fog
3:52 AM 42.1 °F - 41.0 °F 96% 30.06 in 0.2 mi Calm Calm - N/A Fog Fog
4:52 AM 43.0 °F - 42.1 °F 97% 30.05 in 0.2 mi Calm Calm - N/A Fog Fog
5:52 AM 45.0 °F 42.6 °F 44.1 °F 97% 30.07 in 0.2 mi WNW 4.6 mph - N/A Fog Fog
6:52 AM 45.0 °F 43.5 °F 44.1 °F 97% 30.08 in 0.2 mi NW 3.5 mph - N/A Fog Fog
7:52 AM 46.9 °F - 46.0 °F 97% 30.10 in 0.2 mi WNW 3.5 mph - N/A Fog Fog
8:50 AM 51.8 °F - 51.8 °F 100% 30.11 in 0.5 mi Calm Calm - N/A Fog Fog
8:52 AM 52.0 °F - 51.1 °F 97% 30.11 in 0.5 mi Calm Calm - N/A Fog Fog
9:04 AM 53.6 °F - 51.8 °F 94% 30.11 in 1.0 mi Calm Calm - N/A   Overcast
9:19 AM 53.6 °F - 53.6 °F 100% 30.11 in 2.0 mi Calm Calm - N/A   Scattered Clouds
9:52 AM 57.0 °F - 54.0 °F 89% 30.11 in 3.0 mi Calm Calm - N/A   Clear
10:52 AM 64.9 °F - 55.0 °F 70% 30.09 in 5.0 mi Calm Calm - N/A   Haze
11:52 AM 69.1 °F - 54.0 °F 58% 30.09 in 6.0 mi SW 4.6 mph - N/A   Haze
12:52 PM 72.0 °F - 51.1 °F 48% 30.07 in 8.0 mi Calm Calm - N/A   Clear
1:52 PM 73.0 °F - 51.1 °F 46% 30.05 in 10.0 mi SE 4.6 mph - N/A   Scattered Clouds
2:52 PM 75.0 °F - 50.0 °F 41% 30.03 in 10.0 mi SSE 9.2 mph - N/A   Scattered Clouds
3:52 PM 73.9 °F - 48.0 °F 40% 30.01 in 10.0 mi SSW 6.9 mph - N/A   Clear
4:52 PM 75.0 °F - 51.1 °F 43% 29.99 in 10.0 mi ESE 8.1 mph - N/A   Clear
5:52 PM 73.0 °F - 51.1 °F 46% 29.99 in 10.0 mi South 5.8 mph - N/A   Clear
6:52 PM 72.0 °F - 51.1 °F 48% 29.98 in 10.0 mi SSE 6.9 mph - N/A   Clear
7:52 PM 68.0 °F - 53.1 °F 59% 29.97 in 10.0 mi ESE 4.6 mph - N/A   Clear
8:52 PM 61.0 °F - 52.0 °F 72% 29.98 in 10.0 mi ESE 4.6 mph - N/A   Clear
9:52 PM 57.9 °F - 51.1 °F 78% 29.98 in 10.0 mi ESE 4.6 mph - N/A   Clear
10:52 PM 55.9 °F - 50.0 °F 80% 29.99 in 10.0 mi ESE 5.8 mph - N/A   Partly Cloudy
11:52 PM 55.0 °F - 50.0 °F 83% 29.98 in 9.0 mi Calm Calm - N/A   Clear